Weather in Yuen Long

China     22°26′36″N   114°01′20″E
temp.,
°C
wind,
m/s
gust,
m/s
humid.,
%
clouds,
%
prec.,
mm/h
press.,
hPa
HPBL,
m
18 may, wed
wed1823:00+21e337544 0.0 1015224
02:00+21e237980 0.0 1014178
05:00+20e2382100 0.0 1013194
08:00+22ene237247 0.0 1015459
11:00+26ese24476 0.0 1015823
14:00+27se343841 0.0 1013837
17:00+26ese454660 0.0 1012523
20:00+23e4661100 0.0 1013310
19 may, thu
thu1923:00+22e476699 0.0 1014407
02:00+23ene2365100 0.0 1013274
05:00+22ene2364100 0.0 1013250
08:00+23e2264100 0.0 1014259
11:00+24nne1259100 0.0 1014431
14:00+26nnw1256100 0.0 1011629
17:00+26sw125899 0.0 1009634
20:00+24ssw12695 0.0 1011207
20 may, fri
fri2023:00+23e22765 0.0 1012155
02:00+23e128521 0.0 1010126
05:00+22e228869 0.0 1010121
08:00+24e11795 0.0 1011368
11:00+26sw217037 0.0 1010783
14:00+26ssw437497 0.0 1008512
17:00+25ssw547670 0.0 1006468
20:00+24s348222 0.0 1007251
21 may, sat
sat2123:00+24sse338488 0.0 1009203
02:00+24sse238575 0.0 1007187
05:00+23ese228577 0.0 1006149
08:00+25se2277100 0.0 1008378
11:00+27s3270100 0.0 1008771
14:00+26s3378100 0.1 1006536
17:00+24se2288100 1.0 1005277
20:00+24e2288100 1.4 1007242
22 may, sun
sun2223:00+24ese2389100 0.4 1007193
02:00+23ese2291100 1.1 1005183
05:00+23e2393100 1.7 1005193
08:00+23ese2391100 2.9 1006214
11:00+24ese2384100 0.4 1007377
14:00+25e2282100 0.5 1005370
17:00+24ene2289100 0.7 1004220
20:00+23ene2394100 4.6 1006236